"datetime","temp","dp","rain_mm","uv","solar","mb","wind_mph","gust_mph","windchill","rh"
"2013-12-31 00:00:00",4.0,4.0,0.0,0.0,0,1010.7,1,3,"",100
"2013-12-31 00:01:00",4.1,4.0,0.0,0.0,0,1010.7,1,3,"",99
"2013-12-31 00:02:00",4.2,4.1,0.0,0.0,0,1010.7,2,3,"",99
"2013-12-31 00:03:00",4.3,4.3,0.0,0.0,0,1010.7,1,3,"",100
"2013-12-31 00:04:00",4.5,4.5,0.0,0.0,0,1010.7,2,3,"",100
"2013-12-31 00:05:00",4.6,4.6,0.0,0.0,0,1010.7,1,12,"",100
"2013-12-31 00:06:00",4.8,4.8,0.0,0.0,0,1010.7,5,7,"",100
"2013-12-31 00:07:00",5.0,5.0,0.0,0.0,0,1010.7,1,5,"",100
"2013-12-31 00:08:00",5.1,5.1,0.0,0.0,0,1010.6,2,5,"",100
"2013-12-31 00:09:00",5.3,5.3,0.0,0.0,0,1010.6,2,5,"",100
"2013-12-31 00:10:00",5.5,5.5,0.0,0.0,0,1010.6,3,10,"",100
"2013-12-31 00:11:00",5.8,5.8,0.0,0.0,0,1010.5,3,3,"",100
"2013-12-31 00:12:00",5.9,5.9,0.0,0.0,0,1010.5,1,3,"",100
"2013-12-31 00:13:00",6.1,6.1,0.0,0.0,0,1010.5,1,3,"",100
"2013-12-31 00:14:00",6.2,6.2,0.0,0.0,0,1010.5,2,5,"",100
"2013-12-31 00:15:00",6.3,6.3,0.0,0.0,0,1010.4,2,5,"",100
"2013-12-31 00:16:00",6.4,6.4,0.0,0.0,0,1010.4,2,3,"",100
"2013-12-31 00:17:00",6.5,6.5,0.0,0.0,0,1010.4,2,12,"",100
"2013-12-31 00:18:00",6.5,6.5,0.0,0.0,0,1010.4,3,12,"",100
"2013-12-31 00:19:00",6.6,6.6,0.0,0.0,0,1010.3,2,7,"",100
"2013-12-31 00:20:00",6.6,6.6,0.0,0.0,0,1010.3,3,7,"",100
"2013-12-31 00:21:00",6.7,6.7,0.0,0.0,0,1010.3,2,3,"",100
"2013-12-31 00:22:00",6.8,6.8,0.0,0.0,0,1010.2,2,3,"",100
"2013-12-31 00:23:00",6.8,6.8,0.0,0.0,0,1010.1,1,3,"",100
"2013-12-31 00:24:00",6.8,6.8,0.0,0.0,0,1010.2,1,1,"",100
"2013-12-31 00:25:00",6.9,6.9,0.0,0.0,0,1010.2,0,1,"",100
"2013-12-31 00:26:00",6.9,6.9,0.0,0.0,0,1010.2,1,3,"",100
"2013-12-31 00:27:00",6.9,6.9,0.0,0.0,0,1010.1,1,1,"",100
"2013-12-31 00:28:00",6.9,6.9,0.0,0.0,0,1010.1,0,1,"",100
"2013-12-31 00:29:00",6.9,6.9,0.0,0.0,0,1010.1,1,7,"",100
"2013-12-31 00:30:00",7.0,7.0,0.0,0.0,0,1010.0,3,5,"",100
"2013-12-31 00:31:00",7.0,7.0,0.0,0.0,0,1010.0,2,1,"",100
"2013-12-31 00:32:00",7.0,7.0,0.0,0.0,0,1010.0,1,5,"",100
"2013-12-31 00:33:00",7.0,7.0,0.0,0.0,0,1010.0,2,3,"",100
"2013-12-31 00:34:00",7.0,7.0,0.0,0.0,0,1010.0,1,1,"",100
"2013-12-31 00:35:00",7.1,7.1,0.0,0.0,0,1010.0,1,3,"",100
"2013-12-31 00:36:00",7.1,7.1,0.0,0.0,0,1010.0,3,12,"",100
"2013-12-31 00:37:00",7.1,7.1,0.0,0.0,0,1010.0,5,5,"",100
"2013-12-31 00:38:00",7.2,7.2,0.0,0.0,0,1009.9,2,5,"",100
"2013-12-31 00:39:00",7.2,7.2,0.0,0.0,0,1009.9,2,7,"",100
"2013-12-31 00:40:00",7.2,7.2,0.0,0.0,0,1009.9,2,5,"",100
"2013-12-31 00:41:00",7.2,7.2,0.0,0.0,0,1009.8,2,3,"",100
"2013-12-31 00:42:00",7.3,7.3,0.0,0.0,0,1009.7,1,8,"",100
"2013-12-31 00:43:00",7.3,7.3,0.0,0.0,0,1009.8,3,10,"",100
"2013-12-31 00:44:00",7.3,7.3,0.0,0.0,0,1009.7,2,5,"",100
"2013-12-31 00:45:00",7.3,7.3,0.0,0.0,0,1009.7,3,5,"",100
"2013-12-31 00:46:00",7.3,7.3,0.0,0.0,0,1009.7,3,8,"",100
"2013-12-31 00:47:00",7.3,7.3,0.0,0.0,0,1009.7,3,7,"",100
"2013-12-31 00:48:00",7.3,7.3,0.0,0.0,0,1009.6,2,3,"",100
"2013-12-31 00:49:00",7.4,7.4,0.0,0.0,0,1009.6,1,1,"",100
"2013-12-31 00:50:00",7.4,7.4,0.0,0.0,0,1009.5,0,1,"",100
"2013-12-31 00:51:00",7.4,7.4,0.0,0.0,0,1009.5,1,5,"",100
"2013-12-31 00:52:00",7.4,7.4,0.0,0.0,0,1009.5,2,3,"",100
"2013-12-31 00:53:00",7.4,7.4,0.0,0.0,0,1009.4,0,1,"",100
"2013-12-31 00:54:00",7.4,7.4,0.0,0.0,0,1009.4,1,5,"",100
"2013-12-31 00:55:00",7.4,7.4,0.0,0.0,0,1009.3,2,12,"",100
"2013-12-31 00:56:00",7.5,7.5,0.0,0.0,0,1009.3,5,12,"",100
"2013-12-31 00:57:00",7.5,7.5,0.0,0.0,0,1009.3,2,5,"",100
"2013-12-31 00:58:00",7.5,7.5,0.0,0.0,0,1009.3,1,3,"",100
"2013-12-31 00:59:00",7.5,7.5,0.0,0.0,0,1009.3,2,3,"",100
"2013-12-31 01:00:00",7.6,7.6,0.0,0.0,0,1009.2,1,3,"",100
"2013-12-31 01:01:00",7.6,7.6,0.0,0.0,0,1009.2,1,5,"",100
"2013-12-31 01:02:00",7.6,7.6,0.0,0.0,0,1009.2,2,3,"",100
"2013-12-31 01:03:00",7.6,7.6,0.0,0.0,0,1009.2,1,5,"",100
"2013-12-31 01:04:00",7.6,7.6,0.0,0.0,0,1009.2,2,1,"",100
"2013-12-31 01:05:00",7.6,7.6,0.0,0.0,0,1009.2,1,3,"",100
"2013-12-31 01:06:00",7.6,7.6,0.0,0.0,0,1009.2,2,5,"",100
"2013-12-31 01:07:00",7.6,7.6,0.0,0.0,0,1009.2,5,8,"",100
"2013-12-31 01:08:00",7.7,7.7,0.0,0.0,0,1009.2,5,3,"",100
"2013-12-31 01:09:00",7.7,7.7,0.0,0.0,0,1009.2,1,5,"",100
"2013-12-31 01:10:00",7.7,7.7,0.0,0.0,0,1009.2,2,5,"",100
"2013-12-31 01:11:00",7.7,7.7,0.0,0.0,0,1009.1,2,3,"",100
"2013-12-31 01:12:00",7.7,7.7,0.0,0.0,0,1009.1,2,3,"",100
"2013-12-31 01:13:00",7.7,7.7,0.0,0.0,0,1009.1,2,3,"",100
"2013-12-31 01:14:00",7.7,7.7,0.0,0.0,0,1009.0,2,3,"",100
"2013-12-31 01:15:00",7.7,7.7,0.0,0.0,0,1009.1,2,1,"",100
"2013-12-31 01:16:00",7.7,7.7,0.0,0.0,0,1009.0,2,5,"",100
"2013-12-31 01:17:00",7.7,7.7,0.0,0.0,0,1009.0,2,7,"",100
"2013-12-31 01:18:00",7.7,7.7,0.0,0.0,0,1009.0,5,12,"",100
"2013-12-31 01:19:00",7.8,7.8,0.0,0.0,0,1008.9,5,10,"",100
"2013-12-31 01:20:00",7.8,7.8,0.0,0.0,0,1008.9,1,1,"",100
"2013-12-31 01:21:00",7.8,7.8,0.0,0.0,0,1008.9,1,7,"",100
"2013-12-31 01:22:00",7.8,7.8,0.0,0.0,0,1008.9,3,10,"",100
"2013-12-31 01:23:00",7.8,7.8,0.0,0.0,0,1008.9,5,10,"",100
"2013-12-31 01:24:00",7.8,7.8,0.0,0.0,0,1008.9,2,3,"",100
"2013-12-31 01:25:00",7.8,7.8,0.0,0.0,0,1008.9,1,1,"",100
"2013-12-31 01:26:00",7.8,7.8,0.0,0.0,0,1008.8,1,1,"",100
"2013-12-31 01:27:00",7.8,7.8,0.0,0.0,0,1008.8,2,7,"",100
"2013-12-31 01:28:00",7.8,7.8,0.0,0.0,0,1008.8,5,5,"",100
"2013-12-31 01:29:00",7.8,7.8,0.0,0.0,0,1008.7,2,5,"",100
"2013-12-31 01:30:00",7.8,7.8,0.0,0.0,0,1008.8,3,8,"",100
"2013-12-31 01:31:00",7.8,7.8,0.0,0.0,0,1008.8,3,7,"",100
"2013-12-31 01:32:00",7.8,7.8,0.0,0.0,0,1008.8,3,12,"",100
"2013-12-31 01:33:00",7.8,7.8,0.0,0.0,0,1008.8,2,3,"",100
"2013-12-31 01:34:00",7.8,7.8,0.0,0.0,0,1008.7,1,5,"",100
"2013-12-31 01:35:00",7.8,7.8,0.0,0.0,0,1008.7,2,5,"",100
"2013-12-31 01:36:00",7.8,7.8,0.0,0.0,0,1008.7,2,5,"",100
"2013-12-31 01:37:00",7.8,7.8,0.0,0.0,0,1008.7,2,3,"",100
"2013-12-31 01:38:00",7.8,7.8,0.0,0.0,0,1008.7,2,3,"",100
"2013-12-31 01:39:00",7.8,7.8,0.0,0.0,0,1008.6,2,5,"",100
"2013-12-31 01:40:00",7.8,7.8,0.0,0.0,0,1008.6,3,7,"",100
"2013-12-31 01:41:00",7.8,7.8,0.0,0.0,0,1008.6,1,3,"",100
"2013-12-31 01:42:00",7.8,7.8,0.0,0.0,0,1008.5,1,1,"",100
"2013-12-31 01:43:00",7.8,7.8,0.0,0.0,0,1008.5,1,1,"",100
"2013-12-31 01:44:00",7.8,7.8,0.0,0.0,0,1008.5,1,3,"",100
"2013-12-31 01:45:00",7.8,7.8,0.0,0.0,0,1008.4,1,8,"",100
"2013-12-31 01:46:00",7.8,7.8,0.0,0.0,0,1008.4,3,7,"",100
"2013-12-31 01:47:00",7.8,7.8,0.0,0.0,0,1008.4,3,3,"",100
"2013-12-31 01:48:00",7.8,7.8,0.0,0.0,0,1008.4,1,3,"",100
"2013-12-31 01:49:00",7.8,7.8,0.0,0.0,0,1008.4,1,3,"",100
"2013-12-31 01:50:00",7.8,7.8,0.0,0.0,0,1008.4,2,3,"",100
"2013-12-31 01:51:00",7.8,7.8,0.0,0.0,0,1008.4,1,3,"",100
"2013-12-31 01:52:00",7.8,7.8,0.0,0.0,0,1008.4,2,8,"",100
"2013-12-31 01:53:00",7.8,7.8,0.0,0.0,0,1008.4,3,5,"",100
"2013-12-31 01:54:00",7.8,7.8,0.0,0.0,0,1008.4,3,5,"",100
"2013-12-31 01:55:00",7.8,7.8,0.0,0.0,0,1008.3,3,5,"",100
"2013-12-31 01:56:00",7.9,7.9,0.0,0.0,0,1008.3,2,3,"",100
"2013-12-31 01:57:00",7.9,7.9,0.0,0.0,0,1008.3,0,1,"",100
"2013-12-31 01:58:00",7.9,7.9,0.0,0.0,0,1008.3,0,1,"",100
"2013-12-31 01:59:00",7.9,7.9,0.0,0.0,0,1008.3,0,1,"",100
"2013-12-31 02:00:00",7.9,7.9,0.0,0.0,0,1008.2,0,1,"",100
"2013-12-31 02:01:00",7.9,7.9,0.0,0.0,0,1008.2,1,3,"",100
"2013-12-31 02:02:00",7.9,7.9,0.0,0.0,0,1008.2,1,1,"",100
"2013-12-31 02:03:00",7.9,7.9,0.0,0.0,0,1008.2,2,5,"",100
"2013-12-31 02:04:00",7.9,7.8,0.0,0.0,0,1008.3,2,3,"",99
"2013-12-31 02:05:00",7.9,7.8,0.0,0.0,0,1008.3,2,5,"",99
"2013-12-31 02:06:00",7.9,7.8,0.0,0.0,0,1008.3,3,5,"",99
"2013-12-31 02:07:00",7.9,7.8,0.0,0.0,0,1008.2,3,7,"",99
"2013-12-31 02:08:00",7.9,7.8,0.0,0.0,0,1008.2,2,1,"",99
"2013-12-31 02:09:00",7.9,7.8,0.0,0.0,0,1008.2,1,1,"",99
"2013-12-31 02:10:00",8.0,7.8,0.0,0.0,0,1008.2,1,1,"",99
"2013-12-31 02:11:00",8.0,7.8,0.0,0.0,0,1008.2,1,8,"",99
"2013-12-31 02:12:00",8.0,7.9,0.0,0.0,0,1008.2,5,8,"",99
"2013-12-31 02:13:00",8.0,7.9,0.0,0.0,0,1008.2,3,3,"",99
"2013-12-31 02:14:00",8.0,7.9,0.0,0.0,0,1008.2,2,5,"",99
"2013-12-31 02:15:00",8.0,7.9,0.0,0.0,0,1008.2,2,5,"",99
"2013-12-31 02:16:00",8.0,7.9,0.0,0.0,0,1008.1,3,5,"",99
"2013-12-31 02:17:00",8.0,7.9,0.0,0.0,0,1008.1,3,8,"",99
"2013-12-31 02:18:00",8.1,7.9,0.0,0.0,0,1008.1,3,5,"",99
"2013-12-31 02:19:00",8.1,7.9,0.0,0.0,0,1008.0,2,3,"",99
"2013-12-31 02:20:00",8.1,7.9,0.0,0.0,0,1008.0,1,3,"",99
"2013-12-31 02:21:00",8.1,7.9,0.0,0.0,0,1008.1,1,3,"",99
"2013-12-31 02:22:00",8.1,8.0,0.0,0.0,0,1008.0,2,5,"",99
"2013-12-31 02:23:00",8.1,8.0,0.0,0.0,0,1008.0,3,14,"",99
"2013-12-31 02:24:00",8.1,8.0,0.0,0.0,0,1008.0,5,5,"",99
"2013-12-31 02:25:00",8.2,8.0,0.0,0.0,0,1008.0,2,5,"",99
"2013-12-31 02:26:00",8.2,8.0,0.0,0.0,0,1008.0,1,3,"",99
"2013-12-31 02:27:00",8.2,7.9,0.0,0.0,0,1007.9,1,3,"",98
"2013-12-31 02:28:00",8.2,7.9,0.0,0.0,0,1008.0,1,3,"",98
"2013-12-31 02:29:00",8.2,7.9,0.0,0.0,0,1008.0,2,5,"",98
"2013-12-31 02:30:00",8.2,7.9,0.0,0.0,0,1008.0,5,12,"",98
"2013-12-31 02:31:00",8.2,7.9,0.0,0.0,0,1008.0,3,3,"",98
"2013-12-31 02:32:00",8.2,7.9,0.0,0.0,0,1007.9,3,5,"",98
"2013-12-31 02:33:00",8.2,7.9,0.0,0.0,0,1007.9,3,12,"",98
"2013-12-31 02:34:00",8.2,7.9,0.0,0.0,0,1007.9,3,5,"",98
"2013-12-31 02:35:00",8.2,7.9,0.0,0.0,0,1007.9,3,10,"",98
"2013-12-31 02:36:00",8.3,8.0,0.0,0.0,0,1007.9,5,5,"",98
"2013-12-31 02:37:00",8.3,8.0,0.0,0.0,0,1007.9,1,5,"",98
"2013-12-31 02:38:00",8.3,8.0,0.0,0.0,0,1007.8,2,8,"",98
"2013-12-31 02:39:00",8.3,8.0,0.0,0.0,0,1007.9,5,10,"",98
"2013-12-31 02:40:00",8.3,7.9,0.0,0.0,0,1007.9,3,15,"",97
"2013-12-31 02:41:00",8.3,7.9,0.0,0.0,0,1007.8,7,18,"",97
"2013-12-31 02:42:00",8.4,7.9,0.0,0.0,0,1007.8,6,5,"",97
"2013-12-31 02:43:00",8.4,7.9,0.0,0.0,0,1007.8,3,3,"",97
"2013-12-31 02:44:00",8.4,7.9,0.0,0.0,0,1007.8,2,7,"",97
"2013-12-31 02:45:00",8.4,7.9,0.0,0.0,0,1007.8,2,5,"",97
"2013-12-31 02:46:00",8.4,7.9,0.0,0.0,0,1007.7,2,7,"",97
"2013-12-31 02:47:00",8.4,7.9,0.0,0.0,0,1007.7,2,7,"",97
"2013-12-31 02:48:00",8.4,8.0,0.0,0.0,0,1007.6,3,8,"",97
"2013-12-31 02:49:00",8.4,8.0,0.0,0.0,0,1007.6,3,8,"",97
"2013-12-31 02:50:00",8.4,8.0,0.0,0.0,0,1007.6,2,5,"",97
"2013-12-31 02:51:00",8.4,7.8,0.0,0.0,0,1007.6,2,5,"",96
"2013-12-31 02:52:00",8.4,7.8,0.0,0.0,0,1007.5,2,5,"",96
"2013-12-31 02:53:00",8.4,7.8,0.0,0.0,0,1007.5,2,5,"",96
"2013-12-31 02:54:00",8.4,7.8,0.0,0.0,0,1007.5,3,5,"",96
"2013-12-31 02:55:00",8.4,7.8,0.0,0.0,0,1007.4,3,5,"",96
"2013-12-31 02:56:00",8.5,7.9,0.0,0.0,0,1007.4,2,3,"",96
"2013-12-31 02:57:00",8.5,7.9,0.0,0.0,0,1007.4,2,5,"",96
"2013-12-31 02:58:00",8.5,7.9,0.0,0.0,0,1007.4,3,12,"",96
"2013-12-31 02:59:00",8.5,7.9,0.0,0.0,0,1007.4,5,5,"",96
"2013-12-31 03:00:00",8.5,7.9,0.0,0.0,0,1007.3,2,3,"",96
"2013-12-31 03:01:00",8.5,7.9,0.0,0.0,0,1007.3,2,10,"",96
"2013-12-31 03:02:00",8.5,7.9,0.0,0.0,0,1007.3,3,8,"",96
"2013-12-31 03:03:00",8.5,7.9,0.0,0.0,0,1007.3,3,10,"",96
"2013-12-31 03:04:00",8.5,7.9,0.0,0.0,0,1007.2,3,3,"",96
"2013-12-31 03:05:00",8.5,7.9,0.0,0.0,0,1007.2,1,3,"",96
"2013-12-31 03:06:00",8.5,7.9,0.0,0.0,0,1007.2,2,7,"",96
"2013-12-31 03:07:00",8.5,7.9,0.0,0.0,0,1007.1,3,10,"",96
"2013-12-31 03:08:00",8.6,8.0,0.0,0.0,0,1007.1,5,10,"",96
"2013-12-31 03:09:00",8.6,8.0,0.0,0.0,0,1007.0,2,1,"",96
"2013-12-31 03:10:00",8.6,8.0,0.0,0.0,0,1007.1,1,7,"",96
"2013-12-31 03:11:00",8.6,8.0,0.0,0.0,0,1007.0,2,1,"",96
"2013-12-31 03:12:00",8.6,8.0,0.0,0.0,0,1007.0,2,15,"",96
"2013-12-31 03:13:00",8.6,8.0,0.0,0.0,0,1007.0,3,3,"",96
"2013-12-31 03:14:00",8.6,8.0,0.0,0.0,0,1007.0,2,12,"",96
"2013-12-31 03:15:00",8.6,7.8,0.0,0.0,0,1006.9,6,15,"",95
"2013-12-31 03:16:00",8.6,7.8,0.0,0.0,0,1007.0,3,3,"",95
"2013-12-31 03:17:00",8.6,7.8,0.0,0.0,0,1006.9,1,1,"",95
"2013-12-31 03:18:00",8.6,7.8,0.0,0.0,0,1007.0,2,7,"",95
"2013-12-31 03:19:00",8.6,7.8,0.0,0.0,0,1006.9,5,12,"",95
"2013-12-31 03:20:00",8.6,7.8,0.0,0.0,0,1006.9,5,7,"",95
"2013-12-31 03:21:00",8.6,7.8,0.0,0.0,0,1006.9,2,7,"",95
"2013-12-31 03:22:00",8.6,7.8,0.0,0.0,0,1006.9,2,10,"",95
"2013-12-31 03:23:00",8.6,7.8,0.0,0.0,0,1006.9,5,10,"",95
"2013-12-31 03:24:00",8.6,7.8,0.0,0.0,0,1006.9,2,3,"",95
"2013-12-31 03:25:00",8.6,7.9,0.0,0.0,0,1006.9,1,7,"",95
"2013-12-31 03:26:00",8.6,7.9,0.0,0.0,0,1006.9,3,7,"",95
"2013-12-31 03:27:00",8.6,7.9,0.0,0.0,0,1006.8,5,5,"",95
"2013-12-31 03:28:00",8.6,7.9,0.0,0.0,0,1006.8,3,7,"",95
"2013-12-31 03:29:00",8.6,7.9,0.0,0.0,0,1006.8,3,5,"",95
"2013-12-31 03:30:00",8.6,7.9,0.0,0.0,0,1006.7,3,10,"",95
"2013-12-31 03:31:00",8.6,7.9,0.0,0.0,0,1006.6,3,5,"",95
"2013-12-31 03:32:00",8.6,7.9,0.0,0.0,0,1006.6,2,5,"",95
"2013-12-31 03:33:00",8.6,7.9,0.0,0.0,0,1006.7,3,5,"",95
"2013-12-31 03:34:00",8.6,7.9,0.0,0.0,0,1006.7,3,7,"",95
"2013-12-31 03:35:00",8.6,7.9,0.0,0.0,0,1006.7,2,7,"",95
"2013-12-31 03:36:00",8.6,7.9,0.0,0.0,0,1006.7,2,3,"",95
"2013-12-31 03:37:00",8.6,7.9,0.0,0.0,0,1006.6,1,3,"",95
"2013-12-31 03:38:00",8.6,7.9,0.0,0.0,0,1006.6,2,5,"",95
"2013-12-31 03:39:00",8.6,7.9,0.0,0.0,0,1006.6,2,5,"",95
"2013-12-31 03:40:00",8.6,7.9,0.0,0.0,0,1006.6,2,5,"",95
"2013-12-31 03:41:00",8.6,7.9,0.0,0.0,0,1006.6,2,7,"",95
"2013-12-31 03:42:00",8.6,7.9,0.0,0.0,0,1006.5,2,5,"",95
"2013-12-31 03:43:00",8.6,7.9,0.0,0.0,0,1006.5,1,3,"",95
"2013-12-31 03:44:00",8.6,7.9,0.0,0.0,0,1006.5,1,10,"",95
"2013-12-31 03:45:00",8.6,7.9,0.0,0.0,0,1006.4,2,3,"",95
"2013-12-31 03:46:00",8.6,7.9,0.0,0.0,0,1006.4,2,14,"",95
"2013-12-31 03:47:00",8.6,7.9,0.2,0.0,0,1006.4,7,16,"",95
"2013-12-31 03:48:00",8.6,7.9,0.2,0.0,0,1006.3,9,16,"",95
"2013-12-31 03:49:00",8.7,7.8,0.2,0.0,0,1006.2,5,7,"",94
"2013-12-31 03:50:00",8.7,7.8,0.2,0.0,0,1006.2,5,7,"",94
"2013-12-31 03:51:00",8.7,7.8,0.2,0.0,0,1006.2,3,7,"",94
"2013-12-31 03:52:00",8.7,7.8,0.2,0.0,0,1006.1,3,5,"",94
"2013-12-31 03:53:00",8.7,7.8,0.2,0.0,0,1006.2,3,7,"",94
"2013-12-31 03:54:00",8.7,7.8,0.2,0.0,0,1006.1,3,5,"",94
"2013-12-31 03:55:00",8.7,7.8,0.2,0.0,0,1006.1,2,5,"",94
"2013-12-31 03:56:00",8.7,7.8,0.2,0.0,0,1006.0,2,14,"",94
"2013-12-31 03:57:00",8.7,7.8,0.2,0.0,0,1005.9,5,12,"",94
"2013-12-31 03:58:00",8.7,7.8,0.2,0.0,0,1006.0,6,18,"",94
"2013-12-31 03:59:00",8.7,7.8,0.2,0.0,0,1005.9,8,14,"",94
"2013-12-31 04:00:00",8.7,7.8,0.2,0.0,0,1005.9,3,3,"",94
"2013-12-31 04:01:00",8.7,7.8,0.2,0.0,0,1005.9,2,8,"",94
"2013-12-31 04:02:00",8.7,7.8,0.2,0.0,0,1005.9,2,3,"",94
"2013-12-31 04:03:00",8.7,7.8,0.2,0.0,0,1005.8,1,3,"",94
"2013-12-31 04:04:00",8.7,7.8,0.2,0.0,0,1005.8,3,12,"",94
"2013-12-31 04:05:00",8.7,7.8,0.2,0.0,0,1005.8,3,5,"",94
"2013-12-31 04:06:00",8.7,7.8,0.2,0.0,0,1005.8,2,12,"",94
"2013-12-31 04:07:00",8.7,7.8,0.2,0.0,0,1005.8,6,12,"",94
"2013-12-31 04:08:00",8.7,7.7,0.2,0.0,0,1005.8,7,10,"",93
"2013-12-31 04:09:00",8.7,7.8,0.2,0.0,0,1005.8,5,7,"",94
"2013-12-31 04:10:00",8.7,7.8,0.2,0.0,0,1005.8,2,7,"",94
"2013-12-31 04:11:00",8.7,7.7,0.2,0.0,0,1005.8,2,7,"",93
"2013-12-31 04:12:00",8.7,7.8,0.2,0.0,0,1005.8,3,5,"",94
"2013-12-31 04:13:00",8.7,7.8,0.2,0.0,0,1005.7,2,7,"",94
"2013-12-31 04:14:00",8.7,7.8,0.2,0.0,0,1005.6,3,7,"",94
"2013-12-31 04:15:00",8.7,7.8,0.2,0.0,0,1005.6,3,10,"",94
"2013-12-31 04:16:00",8.7,7.8,0.2,0.0,0,1005.6,5,10,"",94
"2013-12-31 04:17:00",8.7,7.8,0.2,0.0,0,1005.6,3,5,"",94
"2013-12-31 04:18:00",8.7,7.8,0.2,0.0,0,1005.6,3,8,"",94
"2013-12-31 04:19:00",8.7,7.8,0.2,0.0,0,1005.5,6,7,"",94
"2013-12-31 04:20:00",8.7,7.8,0.2,0.0,0,1005.5,3,8,"",94
"2013-12-31 04:21:00",8.7,7.8,0.2,0.0,0,1005.3,3,3,"",94
"2013-12-31 04:22:00",8.7,7.8,0.2,0.0,0,1005.3,2,18,"",94
"2013-12-31 04:23:00",8.7,7.8,0.2,0.0,0,1005.2,7,7,"",94
"2013-12-31 04:24:00",8.7,7.8,0.2,0.0,0,1005.2,3,5,"",94
"2013-12-31 04:25:00",8.7,7.8,0.2,0.0,0,1005.2,3,8,"",94
"2013-12-31 04:26:00",8.7,7.8,0.2,0.0,0,1005.1,2,3,"",94
"2013-12-31 04:27:00",8.7,7.8,0.2,0.0,0,1005.1,3,5,"",94
"2013-12-31 04:28:00",8.7,7.8,0.2,0.0,0,1005.2,5,8,"",94
"2013-12-31 04:29:00",8.7,7.8,0.2,0.0,0,1005.2,6,12,"",94
"2013-12-31 04:30:00",8.7,7.8,0.2,0.0,0,1005.1,3,7,"",94
"2013-12-31 04:31:00",8.7,7.8,0.2,0.0,0,1005.0,3,7,"",94
"2013-12-31 04:32:00",8.7,7.8,0.2,0.0,0,1005.0,2,3,"",94
"2013-12-31 04:33:00",8.7,7.8,0.2,0.0,0,1005.0,2,7,"",94
"2013-12-31 04:34:00",8.7,7.8,0.2,0.0,0,1005.0,2,3,"",94
"2013-12-31 04:35:00",8.7,7.8,0.2,0.0,0,1005.1,2,5,"",94
"2013-12-31 04:36:00",8.7,7.8,0.2,0.0,0,1005.0,3,5,"",94
"2013-12-31 04:37:00",8.7,7.8,0.2,0.0,0,1005.0,1,3,"",94
"2013-12-31 04:38:00",8.7,7.8,0.2,0.0,0,1004.9,2,12,"",94
"2013-12-31 04:39:00",8.7,7.8,0.2,0.0,0,1004.9,5,12,"",94
"2013-12-31 04:40:00",8.7,7.8,0.2,0.0,0,1004.9,7,20,"",94
"2013-12-31 04:41:00",8.7,7.8,0.2,0.0,0,1004.8,7,10,"",94
"2013-12-31 04:42:00",8.8,7.9,0.2,0.0,0,1004.8,5,10,"",94
"2013-12-31 04:43:00",8.8,7.9,0.2,0.0,0,1004.8,2,5,"",94
"2013-12-31 04:44:00",8.8,7.9,0.2,0.0,0,1004.8,2,3,"",94
"2013-12-31 04:45:00",8.8,7.9,0.2,0.0,0,1004.7,2,5,"",94
"2013-12-31 04:46:00",8.8,7.9,0.2,0.0,0,1004.7,2,3,"",94
"2013-12-31 04:47:00",8.8,7.9,0.2,0.0,0,1004.7,2,5,"",94
"2013-12-31 04:48:00",8.8,7.9,0.2,0.0,0,1004.7,2,5,"",94
"2013-12-31 04:49:00",8.8,7.9,0.2,0.0,0,1004.6,3,7,"",94
"2013-12-31 04:50:00",8.8,8.0,0.2,0.0,0,1004.6,3,5,"",95
"2013-12-31 04:51:00",8.8,8.0,0.2,0.0,0,1004.6,2,5,"",95
"2013-12-31 04:52:00",8.8,8.0,0.2,0.0,0,1004.5,2,3,"",95
"2013-12-31 04:53:00",8.8,8.0,0.2,0.0,0,1004.5,1,1,"",95
"2013-12-31 04:54:00",8.8,8.0,0.2,0.0,0,1004.5,1,5,"",95
"2013-12-31 04:55:00",8.8,8.0,0.2,0.0,0,1004.5,2,5,"",95
"2013-12-31 04:56:00",8.8,8.0,0.2,0.0,0,1004.4,3,5,"",95
"2013-12-31 04:57:00",8.8,8.0,0.2,0.0,0,1004.5,2,5,"",95
"2013-12-31 04:58:00",8.8,8.0,0.2,0.0,0,1004.4,2,3,"",95
"2013-12-31 04:59:00",8.8,8.0,0.2,0.0,0,1004.4,2,3,"",95
"2013-12-31 05:00:00",8.8,8.0,0.2,0.0,0,1004.4,1,14,"",95
"2013-12-31 05:01:00",8.7,8.1,0.2,0.0,0,1004.4,3,14,"",96
"2013-12-31 05:02:00",8.7,8.1,0.2,0.0,0,1004.4,2,8,"",96
"2013-12-31 05:03:00",8.7,8.0,0.2,0.0,0,1004.3,7,14,"",95
"2013-12-31 05:04:00",8.7,8.1,0.2,0.0,0,1004.3,5,10,"",96
"2013-12-31 05:05:00",8.7,8.1,0.2,0.0,0,1004.3,3,5,"",96
"2013-12-31 05:06:00",8.7,8.1,0.2,0.0,0,1004.3,2,3,"",96
"2013-12-31 05:07:00",8.7,8.1,0.2,0.0,0,1004.3,5,15,"",96
"2013-12-31 05:08:00",8.7,8.1,0.2,0.0,0,1004.2,5,10,"",96
"2013-12-31 05:09:00",8.7,8.1,0.2,0.0,0,1004.3,3,5,"",96
"2013-12-31 05:10:00",8.7,8.1,0.2,0.0,0,1004.2,2,7,"",96
"2013-12-31 05:11:00",8.7,8.1,0.2,0.0,0,1004.2,3,5,"",96
"2013-12-31 05:12:00",8.7,8.1,0.2,0.0,0,1004.3,3,8,"",96
"2013-12-31 05:13:00",8.7,8.1,0.2,0.0,0,1004.2,5,8,"",96
"2013-12-31 05:14:00",8.7,8.1,0.2,0.0,0,1004.1,3,8,"",96
"2013-12-31 05:15:00",8.7,8.1,0.2,0.0,0,1004.2,2,5,"",96
"2013-12-31 05:16:00",8.7,8.1,0.2,0.0,0,1004.2,2,8,"",96
"2013-12-31 05:17:00",8.7,8.1,0.2,0.0,0,1004.1,3,5,"",96
"2013-12-31 05:18:00",8.7,8.1,0.2,0.0,0,1004.2,5,15,"",96
"2013-12-31 05:19:00",8.7,8.1,0.2,0.0,0,1004.2,6,20,"",96
"2013-12-31 05:20:00",8.7,8.1,0.2,0.0,0,1004.1,6,10,"",96
"2013-12-31 05:21:00",8.7,8.1,0.2,0.0,0,1004.1,3,7,"",96
"2013-12-31 05:22:00",8.7,8.1,0.2,0.0,0,1004.0,5,14,"",96
"2013-12-31 05:23:00",8.7,8.1,0.2,0.0,0,1004.0,5,12,"",96
"2013-12-31 05:24:00",8.7,8.1,0.2,0.0,0,1004.0,3,7,"",96
"2013-12-31 05:25:00",8.7,8.1,0.2,0.0,0,1004.0,3,7,"",96
"2013-12-31 05:26:00",8.7,8.1,0.2,0.0,0,1004.0,2,3,"",96
"2013-12-31 05:27:00",8.7,8.1,0.4,0.0,0,1003.9,1,7,"",96
"2013-12-31 05:28:00",8.7,8.1,0.4,0.0,0,1003.8,3,5,"",96
"2013-12-31 05:29:00",8.7,8.1,0.4,0.0,0,1003.8,2,5,"",96
"2013-12-31 05:30:00",8.7,8.3,0.4,0.0,0,1003.8,2,3,"",97
"2013-12-31 05:31:00",8.7,8.3,0.4,0.0,0,1003.8,1,1,"",97
"2013-12-31 05:32:00",8.7,8.2,0.4,0.0,0,1003.8,2,8,"",97
"2013-12-31 05:33:00",8.7,8.2,0.6,0.0,0,1003.7,3,7,"",97
"2013-12-31 05:34:00",8.7,8.2,0.6,0.0,0,1003.6,3,5,"",97
"2013-12-31 05:35:00",8.7,8.2,0.6,0.0,0,1003.6,2,3,"",97
"2013-12-31 05:36:00",8.7,8.2,0.8,0.0,0,1003.6,1,3,"",97
"2013-12-31 05:37:00",8.7,8.2,0.8,0.0,0,1003.6,2,5,"",97
"2013-12-31 05:38:00",8.7,8.2,0.8,0.0,0,1003.6,2,3,"",97
"2013-12-31 05:39:00",8.7,8.2,0.8,0.0,0,1003.5,1,1,"",97
"2013-12-31 05:40:00",8.7,8.2,0.8,0.0,0,1003.5,1,1,"",97
"2013-12-31 05:41:00",8.6,8.2,0.8,0.0,0,1003.5,1,5,"",97
"2013-12-31 05:42:00",8.6,8.2,0.8,0.0,0,1003.5,3,5,"",97
"2013-12-31 05:43:00",8.6,8.2,0.8,0.0,0,1003.5,3,5,"",97
"2013-12-31 05:44:00",8.6,8.2,0.8,0.0,0,1003.5,1,1,"",97
"2013-12-31 05:45:00",8.6,8.2,0.8,0.0,0,1003.5,2,5,"",97
"2013-12-31 05:46:00",8.6,8.2,0.8,0.0,0,1003.4,2,3,"",97
"2013-12-31 05:47:00",8.6,8.2,0.8,0.0,0,1003.5,2,5,"",97
"2013-12-31 05:48:00",8.6,8.2,0.8,0.0,0,1003.4,3,7,"",97
"2013-12-31 05:49:00",8.6,8.2,0.8,0.0,0,1003.4,5,15,"",97
"2013-12-31 05:50:00",8.6,8.2,0.8,0.0,0,1003.3,5,15,"",97
"2013-12-31 05:51:00",8.6,8.2,0.8,0.0,0,1003.3,2,3,"",97
"2013-12-31 05:52:00",8.6,8.2,0.8,0.0,0,1003.2,2,1,"",97
"2013-12-31 05:53:00",8.6,8.2,0.8,0.0,0,1003.3,1,1,"",97
"2013-12-31 05:54:00",8.6,8.3,0.8,0.0,0,1003.3,2,10,"",98
"2013-12-31 05:55:00",8.7,8.4,0.8,0.0,0,1003.3,3,7,"",98
"2013-12-31 05:56:00",8.6,8.4,0.8,0.0,0,1003.2,3,7,"",99
"2013-12-31 05:57:00",8.7,8.4,0.8,0.0,0,1003.2,2,3,"",98
"2013-12-31 05:58:00",8.7,8.4,0.8,0.0,0,1003.1,1,5,"",98
"2013-12-31 05:59:00",8.7,8.4,0.8,0.0,0,1003.2,3,7,"",98
"2013-12-31 06:00:00",8.7,8.4,0.8,0.0,0,1003.2,3,7,"",98
"2013-12-31 06:01:00",8.7,8.4,0.8,0.0,0,1003.1,5,15,"",98
"2013-12-31 06:02:00",8.7,8.4,0.8,0.0,0,1003.1,5,7,"",98
"2013-12-31 06:03:00",8.7,8.4,0.8,0.0,0,1003.1,5,7,"",98
"2013-12-31 06:04:00",8.7,8.4,0.8,0.0,0,1003.0,2,10,"",98
"2013-12-31 06:05:00",8.7,8.4,0.8,0.0,0,1003.0,3,10,"",98
"2013-12-31 06:06:00",8.7,8.4,0.8,0.0,0,1003.0,2,3,"",98
"2013-12-31 06:07:00",8.8,8.5,0.8,0.0,0,1003.0,3,12,"",98
"2013-12-31 06:08:00",8.8,8.5,0.8,0.0,0,1003.0,3,3,"",98
"2013-12-31 06:09:00",8.8,8.5,0.8,0.0,0,1002.9,2,3,"",98
"2013-12-31 06:10:00",8.8,8.5,0.8,0.0,0,1002.9,1,3,"",98
"2013-12-31 06:11:00",8.8,8.5,0.8,0.0,0,1002.9,1,12,"",98
"2013-12-31 06:12:00",8.8,8.5,0.8,0.0,0,1002.9,5,5,"",98
"2013-12-31 06:13:00",8.8,8.5,0.8,0.0,0,1002.9,3,5,"",98
"2013-12-31 06:14:00",8.8,8.5,0.8,0.0,0,1002.9,2,3,"",98
"2013-12-31 06:15:00",8.8,8.5,0.8,0.0,0,1002.9,1,1,"",98
"2013-12-31 06:16:00",8.8,8.5,0.8,0.0,0,1002.9,1,3,"",98
"2013-12-31 06:17:00",8.8,8.5,0.8,0.0,0,1002.8,6,16,"",98
"2013-12-31 06:18:00",8.8,8.5,0.8,0.0,0,1002.8,6,5,"",98
"2013-12-31 06:19:00",8.8,8.5,1.0,0.0,0,1002.8,5,12,"",98
"2013-12-31 06:20:00",8.8,8.5,1.0,0.0,0,1002.8,7,12,"",98
"2013-12-31 06:21:00",8.8,8.5,1.0,0.0,0,1002.9,8,15,"",98
"2013-12-31 06:22:00",8.8,8.5,1.0,0.0,0,1002.8,7,15,"",98
"2013-12-31 06:23:00",8.9,8.6,1.0,0.0,0,1002.8,8,16,"",98
"2013-12-31 06:24:00",8.9,8.6,1.0,0.0,0,1002.7,6,16,"",98
"2013-12-31 06:25:00",8.9,8.6,1.0,0.0,0,1002.7,7,10,"",98
"2013-12-31 06:26:00",8.9,8.6,1.0,0.0,0,1002.8,6,16,"",98
"2013-12-31 06:27:00",8.9,8.6,1.0,0.0,0,1002.7,7,15,"",98
"2013-12-31 06:28:00",8.9,8.6,1.0,0.0,0,1002.7,3,5,"",98
"2013-12-31 06:29:00",9.0,8.7,1.0,0.0,0,1002.7,3,8,"",98
"2013-12-31 06:30:00",9.0,8.7,1.0,0.0,0,1002.7,3,8,"",98
"2013-12-31 06:31:00",9.0,8.7,1.0,0.0,0,1002.7,6,8,"",98
"2013-12-31 06:32:00",9.0,8.7,1.0,0.0,0,1002.7,3,5,"",98
"2013-12-31 06:33:00",9.0,8.7,1.0,0.0,0,1002.8,2,5,"",98
"2013-12-31 06:34:00",9.0,8.7,1.0,0.0,0,1002.8,3,7,"",98
"2013-12-31 06:35:00",9.0,8.7,1.0,0.0,0,1002.7,3,8,"",98
"2013-12-31 06:36:00",9.0,8.7,1.0,0.0,0,1002.8,3,7,"",98
"2013-12-31 06:37:00",9.0,8.7,1.0,0.0,0,1002.8,3,7,"",98
"2013-12-31 06:38:00",9.0,8.7,1.0,0.0,0,1002.7,2,5,"",98
"2013-12-31 06:39:00",9.0,8.7,1.0,0.0,0,1002.8,5,10,"",98
"2013-12-31 06:40:00",9.0,8.7,1.0,0.0,0,1002.8,5,15,"",98
"2013-12-31 06:41:00",9.0,8.7,1.0,0.0,0,1002.8,6,15,"",98
"2013-12-31 06:42:00",9.0,8.8,1.0,0.0,0,1002.8,5,7,"",99
"2013-12-31 06:43:00",9.1,8.8,1.0,0.0,0,1002.8,3,10,"",98
"2013-12-31 06:44:00",9.1,8.8,1.0,0.0,0,1002.7,5,10,"",98
"2013-12-31 06:45:00",9.1,8.8,1.0,0.0,0,1002.8,5,7,"",98
"2013-12-31 06:46:00",9.1,8.6,1.0,0.0,0,1002.8,3,8,"",97
"2013-12-31 06:47:00",9.1,8.6,1.0,0.0,0,1002.7,3,7,"",97
"2013-12-31 06:48:00",9.1,8.6,1.2,0.0,0,1002.7,5,15,"",97
"2013-12-31 06:49:00",9.1,8.6,1.2,0.0,0,1002.8,6,10,"",97
"2013-12-31 06:50:00",9.1,8.6,1.2,0.0,0,1002.7,3,14,"",97
"2013-12-31 06:51:00",9.1,8.6,1.2,0.0,0,1002.7,7,15,"",97
"2013-12-31 06:52:00",9.1,8.6,1.2,0.0,0,1002.7,5,10,"",97
"2013-12-31 06:53:00",9.1,8.6,1.2,0.0,0,1002.6,6,12,"",97
"2013-12-31 06:54:00",9.0,8.6,1.2,0.0,0,1002.6,7,12,"",97